Zurück zum Katalog

CZ-6A DEB

AktivPO
NORAD 60972·DEBRIS·🇨🇳 China

Gestartet Aug 6, 2024 von Taiyuan Satellite Launch Center

Loading…

Nächste Überflüge (nächste 24 Stunden)

TLE

AktuellSource: Space-Track

Epoche: Sep 14, 2026, 00:25 UTC

1 60972U 24140LX  26257.01789325  .00001160  00000-0  47781-3 0  9990
2 60972  88.9930 263.7154 0029780 265.4732  94.3060 14.26065630107290

Verfolge CZ-6A DEB in Echtzeit mit AllMySat

Download on the App Store